When you browse on this site, cookies collect data to enhance your experience and personalize the content and advertising you see.
Visit our Privacy Policy to learn more. By continuing to use the site, you agree to this use of cookies and data.
  • In Latvia
  • List of Countries
  • For 7 days
  • Water Temperature
  • Weather Map
  • Weather Widgets
  • user-avatar
    Login

    Hourly Weather Lankaran

    Today, 5 June, Friday

    Time Temperature Precipitation Wind Pressure Humidity
    00:00 +14°C° 0 mm 1 mps 632 mmHg 58%
    01:00 +14°C° 0 mm 1 mps 632 mmHg 57%
    02:00 +13°C° 0 mm 1 mps 632 mmHg 56%
    03:00 +13°C° 0 mm 1 mps 632 mmHg 57%
    04:00 +14°C° 0 mm 1 mps 633 mmHg 55%
    05:00 +16°C° 0 mm 1 mps 634 mmHg 53%
    06:00 +18°C° 0 mm 1 mps 635 mmHg 51%
    07:00 +19°C° 0 mm 1 mps 635 mmHg 48%
    08:00 +20°C° 0 mm 2 mps 636 mmHg 44%
    09:00 +21°C° 0 mm 2 mps 637 mmHg 40%
    10:00 +23°C° 0 mm 2 mps 637 mmHg 40%
    11:00 +23°C° 0 mm 2 mps 637 mmHg 41%
    12:00 +24°C° 0 mm 2 mps 637 mmHg 42%
    13:00 +22°C° 0.1 mm 3 mps 636 mmHg 45%
    14:00 +22°C° 0.1 mm 3 mps 636 mmHg 49%
    15:00 +21°C° 0.1 mm 4 mps 635 mmHg 52%
    16:00 +19°C° 0 mm 4 mps 635 mmHg 58%
    17:00 +17°C° 0 mm 3 mps 635 mmHg 65%
    18:00 +16°C° 0 mm 3 mps 634 mmHg 71%
    19:00 +14°C° 0 mm 2 mps 634 mmHg 75%
    20:00 +13°C° 0 mm 2 mps 634 mmHg 80%
    21:00 +11°C° 0 mm 1 mps 634 mmHg 84%
    22:00 +11°C° 0 mm 1 mps 634 mmHg 83%
    23:00 +11°C° 0 mm 1 mps 634 mmHg 82%

    Tomorrow, 6 June, Saturday

    Time Temperature Precipitation Wind Pressure Humidity
    00:00 +11°C° 0 mm 1 mps 635 mmHg 81%
    01:00 +11°C° 0 mm 1 mps 635 mmHg 80%
    02:00 +9°C° 0 mm 2 mps 635 mmHg 79%
    03:00 +9°C° 0 mm 2 mps 635 mmHg 77%
    04:00 +10°C° 0 mm 2 mps 636 mmHg 75%
    05:00 +12°C° 0 mm 2 mps 636 mmHg 73%
    06:00 +13°C° 0 mm 2 mps 637 mmHg 71%
    07:00 +14°C° 0 mm 2 mps 637 mmHg 66%
    08:00 +14°C° 0 mm 3 mps 638 mmHg 62%
    09:00 +17°C° 0 mm 4 mps 638 mmHg 58%
    10:00 +17°C° 0 mm 4 mps 638 mmHg 58%
    11:00 +16°C° 0 mm 5 mps 638 mmHg 58%
    12:00 +17°C° 0 mm 5 mps 638 mmHg 57%
    13:00 +17°C° 0 mm 5 mps 638 mmHg 57%
    14:00 +17°C° 0 mm 5 mps 637 mmHg 57%
    15:00 +16°C° 0 mm 5 mps 637 mmHg 56%
    16:00 +17°C° 0 mm 4 mps 637 mmHg 59%
    17:00 +16°C° 0 mm 3 mps 637 mmHg 62%
    18:00 +14°C° 0 mm 3 mps 636 mmHg 65%
    19:00 +14°C° 0 mm 2 mps 636 mmHg 69%
    20:00 +12°C° 0 mm 2 mps 636 mmHg 72%
    21:00 +11°C° 0 mm 1 mps 636 mmHg 76%
    22:00 +11°C° 0 mm 1 mps 636 mmHg 77%
    23:00 +10°C° 0 mm 1 mps 635 mmHg 77%

    Day after tomorrow, 7 June, Sunday

    Time Temperature Precipitation Wind Pressure Humidity
    00:00 +10°C° 0 mm 1 mps 635 mmHg 78%
    01:00 +10°C° 0 mm 1 mps 635 mmHg 78%
    02:00 +10°C° 0 mm 1 mps 635 mmHg 77%
    03:00 +10°C° 0 mm 1 mps 635 mmHg 77%
    04:00 +11°C° 0 mm 1 mps 635 mmHg 73%
    05:00 +12°C° 0 mm 1 mps 636 mmHg 70%
    06:00 +13°C° 0 mm 1 mps 636 mmHg 66%
    07:00 +14°C° 0 mm 1 mps 637 mmHg 61%
    08:00 +16°C° 0 mm 2 mps 637 mmHg 57%
    09:00 +17°C° 0 mm 2 mps 638 mmHg 52%
    10:00 +18°C° 0 mm 3 mps 638 mmHg 50%
    11:00 +19°C° 0 mm 3 mps 638 mmHg 48%
    12:00 +20°C° 0 mm 3 mps 638 mmHg 46%
    13:00 +20°C° 0 mm 4 mps 638 mmHg 46%
    14:00 +20°C° 0 mm 4 mps 637 mmHg 46%
    15:00 +20°C° 0 mm 4 mps 637 mmHg 46%
    16:00 +19°C° 0 mm 3 mps 637 mmHg 51%
    17:00 +17°C° 0 mm 3 mps 636 mmHg 57%
    18:00 +16°C° 0 mm 2 mps 636 mmHg 62%
    19:00 +15°C° 0 mm 2 mps 635 mmHg 64%
    20:00 +13°C° 0 mm 1 mps 635 mmHg 65%
    21:00 +12°C° 0 mm 1 mps 634 mmHg 66%
    22:00 +12°C° 0 mm 1 mps 634 mmHg 64%
    23:00 +12°C° 0 mm 1 mps 634 mmHg 61%

    8 June, Monday

    Time Temperature Precipitation Wind Pressure Humidity
    00:00 +11°C° 0 mm 1 mps 634 mmHg 59%
    01:00 +11°C° 0 mm 1 mps 633 mmHg 58%
    02:00 +11°C° 0 mm 1 mps 633 mmHg 56%
    03:00 +11°C° 0 mm 1 mps 633 mmHg 55%
    04:00 +12°C° 0 mm 1 mps 633 mmHg 52%
    05:00 +14°C° 0 mm 1 mps 634 mmHg 50%
    06:00 +15°C° 0 mm 1 mps 635 mmHg 47%
    07:00 +18°C° 0 mm 1 mps 635 mmHg 43%
    08:00 +18°C° 0 mm 2 mps 635 mmHg 38%
    09:00 +20°C° 0 mm 3 mps 636 mmHg 34%
    10:00 +20°C° 0 mm 3 mps 636 mmHg 35%
    11:00 +21°C° 0 mm 3 mps 636 mmHg 36%
    12:00 +22°C° 0 mm 4 mps 636 mmHg 37%
    13:00 +21°C° 0 mm 4 mps 635 mmHg 38%
    14:00 +21°C° 0 mm 4 mps 635 mmHg 39%
    15:00 +21°C° 0 mm 4 mps 635 mmHg 40%
    16:00 +20°C° 0 mm 3 mps 634 mmHg 46%
    17:00 +19°C° 0 mm 3 mps 634 mmHg 51%
    18:00 +17°C° 0 mm 2 mps 633 mmHg 57%
    19:00 +16°C° 0 mm 2 mps 633 mmHg 58%
    20:00 +14°C° 0 mm 1 mps 633 mmHg 59%
    21:00 +13°C° 0 mm 1 mps 633 mmHg 60%
    22:00 +13°C° 0 mm 1 mps 633 mmHg 60%
    23:00 +12°C° 0 mm 1 mps 632 mmHg 60%

    9 June, Tuesday

    Time Temperature Precipitation Wind Pressure Humidity
    00:00 +12°C° 0 mm 1 mps 632 mmHg 59%
    01:00 +12°C° 0 mm 1 mps 632 mmHg 59%
    02:00 +12°C° 0 mm 1 mps 632 mmHg 59%
    03:00 +12°C° 0 mm 1 mps 632 mmHg 59%
    04:00 +13°C° 0 mm 1 mps 632 mmHg 57%
    05:00 +15°C° 0 mm 1 mps 633 mmHg 55%
    06:00 +15°C° 0 mm 0 mps 634 mmHg 52%
    07:00 +18°C° 0 mm 1 mps 635 mmHg 51%
    08:00 +19°C° 0 mm 2 mps 635 mmHg 49%
    09:00 +20°C° 0 mm 3 mps 636 mmHg 48%
    10:00 +21°C° 0 mm 3 mps 636 mmHg 46%
    11:00 +21°C° 0 mm 4 mps 636 mmHg 45%
    12:00 +22°C° 0 mm 4 mps 636 mmHg 43%
    13:00 +22°C° 0.1 mm 4 mps 636 mmHg 44%
    14:00 +22°C° 0.1 mm 4 mps 635 mmHg 45%
    15:00 +21°C° 0.1 mm 4 mps 635 mmHg 46%
    16:00 +20°C° 0 mm 3 mps 635 mmHg 51%
    17:00 +19°C° 0 mm 2 mps 635 mmHg 56%
    18:00 +19°C° 0 mm 1 mps 635 mmHg 61%
    19:00 +18°C° 0 mm 2 mps 635 mmHg 60%
    20:00 +17°C° 0 mm 2 mps 635 mmHg 58%
    21:00 +17°C° 0 mm 3 mps 635 mmHg 57%
    22:00 +16°C° 0 mm 2 mps 634 mmHg 60%
    23:00 +15°C° 0 mm 1 mps 634 mmHg 64%

    10 June, Wednesday

    Time Temperature Precipitation Wind Pressure Humidity
    00:00 +14°C° 0 mm 1 mps 634 mmHg 67%
    01:00 +14°C° 0 mm 1 mps 633 mmHg 67%
    02:00 +14°C° 0 mm 1 mps 633 mmHg 66%
    03:00 +13°C° 0 mm 1 mps 633 mmHg 66%
    04:00 +15°C° 0 mm 1 mps 633 mmHg 62%
    05:00 +16°C° 0 mm 1 mps 634 mmHg 59%
    06:00 +18°C° 0 mm 1 mps 635 mmHg 55%
    07:00 +20°C° 0 mm 1 mps 635 mmHg 49%
    08:00 +20°C° 0 mm 2 mps 636 mmHg 44%
    09:00 +21°C° 0 mm 3 mps 636 mmHg 39%
    10:00 +22°C° 0 mm 3 mps 636 mmHg 37%
    11:00 +24°C° 0 mm 3 mps 637 mmHg 36%
    12:00 +25°C° 0 mm 3 mps 637 mmHg 35%
    13:00 +25°C° 0.1 mm 4 mps 636 mmHg 35%
    14:00 +25°C° 0.1 mm 4 mps 636 mmHg 35%
    15:00 +23°C° 0.1 mm 4 mps 636 mmHg 36%
    16:00 +22°C° 0.1 mm 3 mps 636 mmHg 41%
    17:00 +21°C° 0.1 mm 3 mps 636 mmHg 45%
    18:00 +19°C° 0.1 mm 3 mps 635 mmHg 50%
    19:00 +18°C° 0 mm 2 mps 635 mmHg 53%
    20:00 +18°C° 0 mm 1 mps 635 mmHg 57%
    21:00 +16°C° 0 mm 1 mps 635 mmHg 60%
    22:00 +16°C° 0 mm 1 mps 634 mmHg 58%
    23:00 +15°C° 0 mm 1 mps 634 mmHg 55%
    Show more